Dubrovnik, Croatia

12:33 AM CEST on June 25, 2018 (GMT +0200)
Cilipi

Weather History for LDDU - December, 2017

Change the Weather History Date:

Wednesday, December 27, 2017

  Actual Average (LYTV) Record (LYTV)
Temperature  
Mean Temperature 52 °F -  
Max Temperature 56 °F 52 °F 62 °F (2000)
Min Temperature 48 °F 36 °F 26 °F (2006)
Degree Days  
Heating Degree Days 13    
Growing Degree Days 2 (Base 50)    
Moisture  
Dew Point 48 °F    
Average Humidity 82    
Maximum Humidity 100    
Minimum Humidity 49    
Precipitation  
Precipitation 0.00 in - - ()
Sea Level Pressure  
Sea Level Pressure 29.80 in    
Wind  
Wind Speed 12 mph ()    
Max Wind Speed 25 mph    
Max Gust Speed 40 mph    
Visibility 7.8 miles    
Events Rain    
Averages and records for this station are not official NWS values.
T = Trace of Precipitation, MM = Missing Value Source: Averaged Metar Reports

Daily Weather History Graph

Daily Weather History Graph

Search for Another Location

Airport or City:

Astronomy

Dec. 27, 2017 Rise Set
Actual Time 7:15 AM CET 4:20 PM CET
Civil Twilight 6:43 AM CET 4:52 PM CET
Nautical Twilight 6:08 AM CET 5:27 PM CET
Astronomical Twilight 5:33 AM CET 6:02 PM CET
Moon 12:29 PM CET (12/27) 12:19 AM CET (12/27)
Length of Visible Light 10h 08m
Length of Day
9h 04m
First Quarter, 61% of the Moon is Illuminated
Dec 27
First Quarter
Jan 2
Full
Jan 8
Last Quarter
Jan 17
New
Jan 24
First Quarter

Hourly Weather History & Observations

Time (CET) Temp. Dew Point Humidity Pressure Visibility Wind Dir Wind Speed Gust Speed Precip Events Conditions
12:00 AM 48.2 °F 48.2 °F 100% 30.01 in 6.2 mi East 9.2 mph - N/A   Scattered Clouds
12:30 AM 50.0 °F 48.2 °F 94% 29.98 in 6.2 mi ENE 10.4 mph - N/A Rain Light Rain
1:00 AM 49 °F 49 °F 100% 29.98 in 16 mi East 8.9 mph - - Rain Light Rain
1:00 AM 50.0 °F 50.0 °F 100% 29.98 in 6.2 mi East 9.2 mph - N/A   Mostly Cloudy
1:30 AM 50.0 °F 50.0 °F 100% 29.95 in 6.2 mi East 9.2 mph - N/A   Mostly Cloudy
2:00 AM 50.0 °F 50.0 °F 100% 29.95 in 6.2 mi East 9.2 mph - N/A   Mostly Cloudy
2:30 AM 50.0 °F 50.0 °F 100% 29.95 in 6.2 mi East 8.1 mph - N/A   Mostly Cloudy
3:00 AM 50.0 °F 50.0 °F 100% 29.92 in 6.2 mi East 8.1 mph - N/A   Partly Cloudy
3:30 AM 50.0 °F 50.0 °F 100% 29.92 in 6.2 mi East 9.2 mph - N/A   Partly Cloudy
4:00 AM 49 °F 49 °F 100% 29.93 in 16 mi East 8.9 mph - -   Partly Cloudy
4:00 AM 50.0 °F 50.0 °F 100% 29.92 in 6.2 mi East 9.2 mph - N/A   Scattered Clouds
4:30 AM 48.2 °F 48.2 °F 100% 29.89 in 6.2 mi East 9.2 mph - N/A   Scattered Clouds
5:00 AM 50.0 °F 50.0 °F 100% 29.89 in 6.2 mi East 10.4 mph - N/A   Scattered Clouds
5:30 AM 50.0 °F 50.0 °F 100% 29.89 in 6.2 mi East 8.1 mph - N/A   Mostly Cloudy
6:30 AM 50.0 °F 50.0 °F 100% 29.89 in 6.2 mi East 10.4 mph - N/A   Mostly Cloudy
7:00 AM 50 °F 50 °F 99% 29.90 in 16 mi East 8.9 mph - -   Mostly Cloudy
7:00 AM 50.0 °F 50.0 °F 100% 29.89 in 6.2 mi East 9.2 mph - N/A   Mostly Cloudy
7:30 AM 50.0 °F 50.0 °F 100% 29.89 in 6.2 mi East 11.5 mph - N/A   Mostly Cloudy
8:00 AM 51.8 °F 50.0 °F 94% 29.86 in 6.2 mi ESE 13.8 mph - N/A   Mostly Cloudy
8:30 AM 51.8 °F 50.0 °F 94% 29.86 in 6.2 mi ESE 13.8 mph - N/A   Mostly Cloudy
9:00 AM 53.6 °F 48.2 °F 82% 29.86 in 6.2 mi SE 13.8 mph - N/A   Mostly Cloudy
9:30 AM 53.6 °F 48.2 °F 82% 29.86 in 6.2 mi SE 12.7 mph - N/A   Mostly Cloudy
10:00 AM 54 °F 47 °F 71% 29.87 in 19 mi SE 15.7 mph - -   Partly Cloudy
10:00 AM 53.6 °F 46.4 °F 77% 29.86 in 6.2 mi SE 16.1 mph - N/A   Mostly Cloudy
10:30 AM 53.6 °F 46.4 °F 77% 29.86 in 6.2 mi SE 13.8 mph - N/A   Mostly Cloudy
11:00 AM 55.4 °F 46.4 °F 72% 29.83 in 6.2 mi SSE 16.1 mph - N/A   Mostly Cloudy
11:30 AM 55.4 °F 46.4 °F 72% 29.83 in 6.2 mi SE 16.1 mph - N/A   Mostly Cloudy
11:49 AM 54 °F 40 °F 49% 29.42 in 16 mi South 13.4 mph - -   Overcast
12:00 PM 55.4 °F 48.2 °F 77% 29.80 in 6.2 mi SSE 15.0 mph - N/A   Mostly Cloudy
12:30 PM 53.6 °F 48.2 °F 82% 29.80 in 6.2 mi SE 17.3 mph - N/A   Mostly Cloudy
1:00 PM 55 °F 49 °F 73% 29.79 in 19 mi SE 15.7 mph - -   Partly Cloudy
1:00 PM 55.4 °F 50.0 °F 82% 29.77 in 6.2 mi SE 16.1 mph - N/A   Mostly Cloudy
1:30 PM 55.4 °F 46.4 °F 72% 29.77 in 6.2 mi SE 20.7 mph - N/A   Mostly Cloudy
2:00 PM 55.4 °F 48.2 °F 77% 29.74 in 6.2 mi SSE 16.1 mph - N/A   Mostly Cloudy
2:30 PM 55.4 °F 44.6 °F 67% 29.74 in 6.2 mi SSE 18.4 mph 29.9 mph N/A   Mostly Cloudy
3:00 PM 55.4 °F 46.4 °F 72% 29.71 in 6.2 mi SE 18.4 mph 29.9 mph N/A   Mostly Cloudy
3:30 PM 55.4 °F 46.4 °F 72% 29.71 in 6.2 mi SE 20.7 mph - N/A   Mostly Cloudy
4:00 PM 55 °F 46 °F 62% 29.73 in 16 mi SE 17.9 mph - -   Mostly Cloudy
4:00 PM 55.4 °F 46.4 °F 72% 29.71 in 6.2 mi SE 18.4 mph - N/A   Mostly Cloudy
4:30 PM 55.4 °F 46.4 °F 72% 29.71 in 6.2 mi SE 18.4 mph 29.9 mph N/A   Mostly Cloudy
5:00 PM 55.4 °F 48.2 °F 77% 29.68 in 6.2 mi SE 19.6 mph - N/A   Mostly Cloudy
5:30 PM 55.4 °F 46.4 °F 72% 29.68 in 6.2 mi SE 21.9 mph 33.4 mph N/A   Mostly Cloudy
6:00 PM 55.4 °F 46.4 °F 72% 29.68 in 6.2 mi SE 24.2 mph - N/A   Mostly Cloudy
6:30 PM 55.4 °F 44.6 °F 67% 29.68 in 6.2 mi SE 23.0 mph 34.5 mph N/A   Mostly Cloudy
7:00 PM 55.4 °F 44.6 °F 67% 29.65 in 6.2 mi SE 21.9 mph - N/A   Mostly Cloudy
7:30 PM 55.4 °F 46.4 °F 72% 29.65 in 6.2 mi SE 24.2 mph 38.0 mph N/A   Mostly Cloudy
8:00 PM 55.4 °F 46.4 °F 72% 29.62 in 6.2 mi SE 21.9 mph 33.4 mph N/A   Mostly Cloudy
9:00 PM 55.4 °F 44.6 °F 67% 29.62 in 6.2 mi SSE 23.0 mph 40.3 mph N/A   Mostly Cloudy
10:00 PM 56 °F 46 °F 59% 29.61 in 16 mi SSE 24.6 mph - -   Mostly Cloudy
10:30 PM 55.4 °F 46.4 °F 72% 29.59 in 6.2 mi SE 25.3 mph 39.1 mph N/A   Mostly Cloudy
11:00 PM 55.4 °F 46.4 °F 72% 29.56 in 6.2 mi SE 24.2 mph 35.7 mph N/A   Mostly Cloudy
11:30 PM 55.4 °F 48.2 °F 77% 29.56 in 6.2 mi SE 25.3 mph 38.0 mph N/A   Mostly Cloudy